Regional Weather Roundup
Issued by NWS Albany, NY

Home | Current Version | Previous Version | Text Only | Print | Product List | Glossary On
Versions: 1 2 3 4 5 6 7 8 9 10 11 12 13 14 15 16 17 18 19 20 21 22 23 24 25 26 27 28
000
ASUS41 KALY 220810
RWRALY

NEW YORK STATE HOURLY WEATHER ROUNDUP
NATIONAL WEATHER SERVICE ALBANY NY
400 AM EDT FRI SEP 22 2017

NOTE: "FAIR" INDICATES FEW OR NO CLOUDS BELOW 12,000 FEET WITH NO
SIGNIFICANT WEATHER AND/OR NO OBSTRUCTIONS TO VISIBILITY.

NYZ032-033-038>043-046>054-057>066-NYZ062>081-082-084-220900-
EAST


CITY           SKY/WX    TMP DP  RH WIND       PRES   REMARKS
ALBANY         MOCLDY    60  54  80 NW3       30.09S
GLENS FALLS    CLOUDY    51  49  92 CALM      30.09F
POUGHKEEPSIE   CLOUDY    59  56  89 NE3       30.03S
NEWBURGH       PTCLDY    64  57  77 NE9       30.05F
MONTGOMERY     CLOUDY    62  58  86 N6        30.04F
WHITE PLAINS   CLOUDY    64  47  53 NW13      29.98F
ISLIP          CLOUDY    68  50  52 N20G28    29.94F
NEW YORK CITY  CLOUDY    69  51  52 N10       29.98F
CENTRAL PARK   CLOUDY    69  49  48 VRB6G23   30.02F
$$

NYZ005>009-017-018-044>046-055-056-220900-
CENTRAL


CITY           SKY/WX    TMP DP  RH WIND       PRES   REMARKS
FULTON         PTCLDY    55  54  96 CALM      30.11S FOG
SYRACUSE       MOCLDY    57  57 100 CALM      30.10S
ROME           PTCLDY    55  54  96 CALM      30.12R
ELMIRA         FOG       56  56 100 CALM      30.12R VSB 1
BINGHAMTON     CLOUDY    60  59  96 NE5       30.12R
MONTICELLO     CLOUDY    59  54  83 N6        30.09S
$$

NYZ026>034-041>043-087-220900-
NORTH


CITY           SKY/WX    TMP DP  RH WIND       PRES   REMARKS
WATERTOWN      CLOUDY    51  51 100 CALM      30.12R FOG
FORT DRUM      NOT AVBL
OGDENSBURG     FAIR      53  52  97 CALM      30.13S
MASSENA        MOCLDY    51  50  96 CALM      30.15R
SARANAC LAKE   CLOUDY    41  41 100 CALM      30.15S
PLATTSBURGH    CLOUDY    52  50  93 CALM      30.12S
$$

NYZ001>004-010>016-019>021-085-220900-
WEST


CITY           SKY/WX    TMP DP  RH WIND       PRES   REMARKS
NIAGARA FALLS  CLEAR     63  57  81 NE3       30.11F
BUFFALO        CLOUDY    62  58  86 CALM      30.12S
DUNKIRK        CLOUDY    58  57  97 N3        30.11S
JAMESTOWN      PTCLDY    64  56  75 CALM      30.16S
WELLSVILLE     FOG       58  56  93 CALM      30.17F VSB 3/4
ROCHESTER      CLOUDY    59  59 100 CALM      30.12S
PENN YAN       PTCLDY    60  58  92 CALM      30.13S
$$

             KEY
       WCI = WIND CHILL INDEX
       VSB = VISIBILITY
       HX  = HEAT INDEX
$$




USA.gov is the U.S. government's official web portal to all federal, state and local government web resources and services.